This is the latest recevied weather packets stored in our database for station/object OE6ACM-14. If no packets are shown the sender has not sent any weather packets the latest 10 day(s).
| Time | Temp. | Humidity | Pressure | Rain* | Wind** | Luminosity | Snow |
|---|---|---|---|---|---|---|---|
| 1777799796 | 31.67° C | 20% | 928.9 hPa | - | - | - | - |
| 1777799496 | 31.67° C | 20% | 929 hPa | - | - | - | - |
| 1777799196 | 32.22° C | 20% | 929 hPa | - | - | - | - |
| 1777798896 | 33.33° C | 19% | 929 hPa | - | - | - | - |
| 1777798596 | 33.89° C | 19% | 929.1 hPa | - | - | - | - |
| 1777798296 | 34.44° C | 18% | 929 hPa | - | - | - | - |
| 1777797996 | 32.78° C | 19% | 929.1 hPa | - | - | - | - |
| 1777797696 | 33.89° C | 18% | 929.1 hPa | - | - | - | - |
| 1777797396 | 32.78° C | 18% | 929.3 hPa | - | - | - | - |
| 1777797096 | 33.33° C | 19% | 929.2 hPa | - | - | - | - |
| 1777796796 | 35° C | 18% | 929.2 hPa | - | - | - | - |
| 1777796496 | 35.56° C | 18% | 929.2 hPa | - | - | - | - |
| 1777796196 | 34.44° C | 18% | 929.3 hPa | - | - | - | - |
| 1777795896 | 32.78° C | 19% | 929.3 hPa | - | - | - | - |
| 1777795596 | 31.11° C | 22% | 929.4 hPa | - | - | - | - |
| 1777795296 | 31.11° C | 21% | 929.5 hPa | - | - | - | - |
| 1777794996 | 30° C | 22% | 929.5 hPa | - | - | - | - |
| 1777794696 | 28.89° C | 22% | 929.5 hPa | - | - | - | - |
| 1777794396 | 30.56° C | 22% | 929.4 hPa | - | - | - | - |
| 1777794096 | 28.89° C | 24% | 929.5 hPa | - | - | - | - |
| 1777793796 | 26.11° C | 26% | 929.6 hPa | - | - | - | - |
| 1777793496 | 27.78° C | 24% | 929.6 hPa | - | - | - | - |
| 1777793196 | 28.33° C | 25% | 929.6 hPa | - | - | - | - |
| 1777792896 | 26.11° C | 27% | 929.6 hPa | - | - | - | - |
| 1777792596 | 24.44° C | 29% | 929.7 hPa | - | - | - | - |
* Rain since midnight (hover to see other rain measurements)
** Current wind speed in m/s (hover to see current wind gust speed)